DW7779 Weather Reports


time (UTC)temp
F
wind
direction
speed
knots
gust
knots
rain 1hr
in
rain 24hr
in
rain mn
in
humidity
%
barometer
mb
20260831010039 53 0.9 2.6 0.00 0.00 0.00 84 1031.5
20260831004540 51 0.0 2.6 0.00 0.00 0.00 85 1031.6
20260831003033 51 0.0 2.6 0.00 0.00 0.00 86 1031.7
20260831001536 50 0.0 1.7 0.00 0.00 0.00 87 1031.9
20260831000025 50 0.0 2.6 0.00 0.00 0.00 88 1031.9
20260830234525 49 0.0 2.6 0.00 0.00 0.00 88 1031.8
20260830233019 48 0.0 3.5 0.00 0.00 0.00 90 1031.9
20260830231517 48 0.9 4.3 0.00 0.00 0.00 90 1032.0
20260830230019 47 0.9 3.5 0.00 0.00 0.00 90 1032.0
20260830224519 47 0.0 2.6 0.00 0.00 0.00 91 1031.9
20260830223023 47 0.0 2.6 0.00 0.00 0.00 92 1031.8
20260830221518 47 0.0 2.6 0.00 0.00 0.00 92 1031.9
20260830220014 46 0.0 2.6 0.00 0.00 0.00 92 1032.0
20260830214518 46 1.7 3.5 0.00 0.00 0.00 92 1031.8
20260830213015 46 0.9 2.6 0.00 0.00 0.00 92 1031.8
20260830211513 46 0.0 0.9 0.00 0.00 0.00 93 1031.7
20260830210014 46 1.7 3.5 0.00 0.00 0.00 93 1031.7
20260830204511 46 0.0 2.6 0.00 0.00 0.00 93 1031.6
20260830203020 46 0.0 2.6 0.00 0.00 0.00 92 1031.5
20260830201508 47 0.0 1.7 0.00 0.00 0.00 92 1031.4
20260830200009 47 0.9 3.5 0.00 0.00 0.00 92 1031.4
20260830194506 47 0.9 3.5 0.00 0.00 0.00 92 1031.3
20260830193006 47 0.0 2.6 0.00 0.00 0.00 92 1031.3
20260830191505 47 1.7 3.5 0.00 0.00 0.00 92 1031.2
20260830190003 47 0.9 2.6 0.00 0.00 0.00 93 1031.1
20260830184502 47 0.0 1.7 0.00 0.00 0.00 93 1031.3
20260830183115 47 0.0 0.9 0.00 0.00 0.00 93 1031.4
20260830181559 47 0.0 0.9 0.00 0.00 0.00 93 1031.4
20260830180106 47 0.0 1.7 0.00 0.00 0.00 93 1031.4
20260830174558 47 0.0 0.0 0.00 0.00 0.00 93 1031.5
20260830173111 47 0.0 0.0 0.00 0.00 0.00 93 1031.6
20260830171553 47 0.0 1.7 0.00 0.00 0.00 93 1031.8
20260830170056 47 0.0 3.5 0.00 0.00 0.00 93 1031.9
20260830164557 47 0.0 1.7 0.00 0.00 0.00 93 1032.1
20260830163058 47 0.0 1.7 0.00 0.00 0.00 93 1032.0
20260830161611 47 0.0 2.6 0.00 0.00 0.00 93 1032.0
20260830160049 47 0.9 4.3 0.00 0.00 0.00 93 1032.1
20260830154546 47 0.0 3.5 0.00 0.00 0.00 94 1032.0
20260830153049 48 0.9 3.5 0.00 0.00 0.00 94 1032.0
20260830151546 47 0.0 2.6 0.00 0.00 0.00 94 1031.9
20260830144544 47 0.9 3.5 0.00 0.00 0.00 94 1031.9
20260830143038 47 0.0 2.6 0.00 0.00 0.00 94 1031.9
20260830141538 47 0.0 1.7 0.00 0.00 0.00 94 1031.9
20260830140036 47 0.9 3.5 0.00 0.00 0.00 94 1031.9
20260830134541 48 0.0 1.7 0.00 0.00 0.00 94 1032.1
20260830133038 48 0.0 0.9 0.00 0.00 0.00 93 1032.1
20260830131542 48 0.0 0.9 0.00 0.00 0.00 92 1032.3
20260830130032 49 0.0 0.0 0.00 0.00 0.00 91 1032.3
20260830124532 50 0.0 0.9 0.00 0.00 0.00 91 1032.4
20260830123032 50 0.0 0.9 0.00 0.00 0.00 91 1032.3
20260830121532 50 0.0 0.0 0.00 0.00 0.00 91 1032.4
20260830120031 50 0.0 0.0 0.00 0.00 0.00 92 1032.3
20260830114530 50 0.0 0.9 0.00 0.00 0.00 92 1032.2
20260830113030 50 0.0 0.0 0.00 0.00 0.00 91 1032.1
20260830111530 50 0.0 0.0 0.00 0.00 0.00 91 1032.2
20260830110029 50 0.0 0.0 0.00 0.00 0.00 91 1032.2
20260830104528 50 0.0 0.0 0.00 0.00 0.00 92 1032.1
20260830103028 50 0.0 0.0 0.00 0.00 0.00 92 1031.9
20260830101527 50 0.0 0.0 0.00 0.00 0.00 92 1031.8
20260830100027 50 0.0 0.0 0.00 0.00 0.00 92 1031.8
20260830094526 49 0.0 0.0 0.00 0.00 0.00 92 1031.8
20260830093028 49 0.0 0.0 0.00 0.00 0.00 92 1031.7
20260830091540 49 0.0 0.0 0.00 0.00 0.00 92 1031.7
20260830090026 50 0.0 0.0 0.00 0.00 0.00 91 1031.6
20260830084525 50 0.0 0.0 0.00 0.00 0.00 91 1031.5
20260830083024 50 0.0 0.0 0.00 0.00 0.00 90 1031.5
20260830081527 51 0.0 0.0 0.00 0.00 0.00 89 1031.3
20260830080023 52 0.0 0.9 0.00 0.00 0.00 89 1031.2
20260830074525 53 0.0 2.6 0.00 0.00 0.00 88 1031.1
20260830073023 54 0.0 1.7 0.00 0.00 0.00 86 1031.1
20260830071521 55 0.0 1.7 0.00 0.00 0.00 85 1031.1
20260830070020 57 0.0 1.7 0.00 0.00 0.00 83 1031.1
20260830064519 58 0.9 3.5 0.00 0.00 0.00 80 1031.0
20260830063018 59 0.9 4.3 0.00 0.00 0.00 78 1030.9
20260830061526 62 0.0 1.7 0.00 0.00 0.00 75 1030.9
20260830060016 63 0.0 2.6 0.00 0.00 0.00 75 1030.9
20260830054521 63 0.0 1.7 0.00 0.00 0.00 74 1030.9
20260830053014 63 0.0 2.6 0.00 0.00 0.00 74 1031.0
20260830051514 63 0.9 1.7 0.00 0.00 0.00 73 1031.0
20260830050012 64 0.0 4.3 0.00 0.00 0.00 72 1031.0
20260830044510 63 0.0 4.3 0.00 0.00 0.00 74 1031.0
20260830043008 63 0.9 4.3 0.00 0.00 0.00 73 1031.0
20260830041505 63 0.0 3.5 0.00 0.00 0.00 74 1031.1
20260830040013 64 0.9 3.5 0.00 0.00 0.00 71 1031.1
20260830034601 62 0.9 3.5 0.00 0.00 0.00 73 1031.3
20260830033111 62 0.0 3.5 0.00 0.00 0.00 73 1031.4
20260830031559 62 0.9 3.5 0.00 0.00 0.00 73 1031.5
20260830030055 62 0.9 3.5 0.00 0.00 0.00 73 1031.7
20260830024607 62 0.9 5.2 0.00 0.00 0.00 75 1032.0
20260830023050 61 0.9 4.3 0.00 0.00 0.00 75 1032.4
20260830021549 62 0.9 3.5 0.00 0.00 0.00 74 1032.5
20260830020100 61 0.9 3.5 0.00 0.00 0.00 75 1032.7
20260830014553 59 0.9 4.3 0.00 0.00 0.00 77 1032.8
20260830013101 58 0.0 5.2 0.00 0.00 0.00 80 1032.9
20260830011538 57 1.7 3.5 0.00 0.00 0.00 80 1033.1